Location: Rotheul
(50.2849°N, 11.2349°E)
Time: 13:58:14
(UTC+02:00)

ISS - Pass Details

Date: 19 May 2018
Orbit: 402 x 407 km, 51.6° (Epoch: 26 May)

Event Time Altitude Azimuth Distance (km) Brightness Sun altitude
Exits shadow 00:57:29 38° 81° (E) 639 -2.9 -19.9°
Drops below altitude 10° 00:59:37 10° 76° (ENE) 1,458 -0.9 -20.0°
Sets 01:01:42 0° 75° (ENE) 2,319 0.2 -20.0°
